SCP
4 4 4 4 3 3 2 2 2 1 1 1 1 1 1 1 1 1 1 1 1 1 1 1 1 1 1 1 1 1 2 1 1 1 1 1 1 1 1 0 0 0 0
3 3 3 3 2 2 2 2 1 1 1 1 1 1 1 0 0 0 0 0 1 1 1 1 1 1 1 1 1 1 1 1 1 1 1 1 1 1 1 1 0 0 0
2 2 2 2 2 2 1 1 1 1 1 1 1 0 0 0 0 0 0 0 0 0 0 1 1 1 1 1 1 1 1 1 1 1 1 1 1 1 1 1 0 0 0
1 1 1 1 1 1 1 1 1 1 0 0 0 0 0 0 0 0 0 0 0 0 0 0 0 0 0 0 0 1 1 1 1 1 1 1 1 1 1 1 0 0 0
1 1 1 1 1 1 1 1 1 0 0 0 0 0 0 0 0 0 0 0 0 0 0 0 0 0 0 0 0 0 1 1 1 1 1 1 1 1 1 1 1 1 0
1 1 1 1 1 0 0 0 0 0 0 0 0 0 0 0 0 0 0 0 0 0 0 0 0 0 0 0 0 0 0 1 1 1 1 1 1 1 1 1 1 1 0
0 0 0 0 0 0 0 0 0 0 0 0 0 0 0 0 0 0 0 0 0 0 0 0 0 0 0 0 0 0 0 0 0 1 1 1 1 1 1 1 1 1 0
0 0 0 0 0 0 0 0 0 0 0 0 0 0 0 0 0 0 0 0 0 0 0 0 0 0 0 0 0 0 0 0 0 0 0 1 1 1 1 1 1 1 1
0 0 0 0 0 0 0 0 0 0 0 0 0 0 0 0 0 0 0 0 0 0 0 0 0 0 0 0 0 0 0 0 0 0 0 0 0 0 0 1 1 1 0
0 0 0 0 0 0 0 0 0 0 0 0 0 0 0 0 0 0 0 0 0 0 0 0 0 0 0 0 0 0 0 0 0 0 0 0 0 0 0 0 0 0 0
0 0 0 0 0 0 0 0 0 0 0 0 0 0 0 0 0 0 0 0 0 0 0 0 0 0 0 0 0 0 0 0 0 0 0 0 0 0 0 0 0 0 0
0 0 0 0 0 0 0 0 0 0 0 0 0 0 0 0 0 0 0 0 0 0 0 0 0 0 0 0 0 0 0 0 0 0 0 0 0 0 0 0 0 0 0
0 0 0 0 0 0 0 0 0 0 0 0 0 0 0 0 0 0 0 0 0 0 0 0 0 0 0 0 0 0 0 0 0 0 0 0 0 0 0 0 0 0 0
0 0 0 0 0 0 0 0 0 0 0 0 0 0 0 0 0 0 0 0 0 0 0 0 0 0 0 0 0 0 0 0 0 0 0 0 0 0 0 0 0 0 0
0 0 0 0 0 0 0 0 0 0 0 0 0 0 0 0 0 0 0 0 0 0 0 0 0 0 0 0 0 0 0 0 0 0 0 0 0 0 0 0 0 0 0
0 0 0 0 0 0 0 0 0 0 0 0 0 0 0 0 0 0 0 0 0 0 0 0 0 0 0 0 0 0 0 0 0 0 0 0 0 0 0 0 0 0 0
0 0 0 0 0 0 0 0 0 0 0 0 0 0 0 0 0 -0 0 0 0 0 0 0 0 0 0 0 0 0 0 0 0 0 0 0 0 0 0 0 0 0 0
0 0 0 0 0 0 0 0 0 0 0 0 0 0 0 0 0 0 0 0 0 0 0 0 0 0 0 0 0 0 0 0 0 0 0 0 0 0 0 0 0 0 0
0 0 0 0 0 0 0 0 0 0 0 0 0 0 0 0 0 0 0 0 0 0 0 0 0 0 0 0 0 0 0 0 0 0 0 0 0 0 0 0 0 0 0
0 0 0 0 0 0 0 0 0 0 0 0 0 0 0 0 0 0 0 0 0 0 0 0 0 0 1 1 1 1 0 0 0 0 0 0 0 0 0 0 0 0 0
0 0 0 0 0 0 0 0 0 0 0 0 0 0 0 0 0 0 0 0 0 0 0 0 0 0 1 1 1 1 0 0 0 0 0 0 0 0 0 0 0 0 0
0 0 0 0 0 0 0 0 0 0 0 0 0 0 0 0 0 0 0 0 0 0 0 0 0 0 0 0 0 0 0 0 0 0 0 0 0 0 0 0 0 0 0
0 0 0 0 0 0 0 0 0 0 0 0 0 0 0 0 0 0 0 0 0 0 0 0 0 0 0 0 0 0 0 0 0 0 0 0 0 0 0 0 0 0 0
0 0 0 0 0 0 0 0 0 0 0 0 0 0 0 0 0 0 0 0 0 0 0 0 0 0 0 0 0 0 0 0 0 0 0 0 0 0 0 0 0 0 0
0 0 0 0 0 0 0 0 0 0 0 0 0 0 0 0 0 0 0 0 0 0 0 0 0 0 0 0 0 0 0 0 0 0 0 0 0 0 0 0 0 0 0
0 0 0 0 0 0 0 0 0 0 0 0 0 0 0 0 0 0 0 0 0 0 0 0 0 0 0 0 0 0 0 0 0 0 0 0 0 0 0 0 0 0 0
Wind_Speed
4 4 4 4 4 4 4 4 4 3 3 3 3 3 4 4 3 3 4 5 5 4 4 5 5 5 4 4 4 4 4 5 6 5 2 3 4 6 5 5 7 7 7
3 3 4 3 3 4 4 4 3 3 3 4 4 4 4 4 4 4 5 5 5 5 5 5 6 6 6 5 4 5 5 5 5 6 3 3 4 6 6 5 6 8 7
2 2 2 3 3 3 3 3 2 3 3 4 4 5 5 5 5 6 6 5 5 5 5 5 5 6 7 6 6 5 5 5 4 5 4 3 3 5 6 5 5 4 6
1 1 2 2 2 2 2 2 3 3 3 4 4 4 4 5 7 8 8 5 4 4 4 4 5 5 6 8 6 6 6 5 4 4 3 3 3 5 5 5 4 3 3
2 2 2 2 2 2 2 2 2 3 4 4 4 4 5 5 7 8 8 6 5 5 4 3 3 3 3 5 5 6 7 5 4 2 2 2 3 4 5 4 4 3 2
2 3 3 2 2 2 1 1 2 2 3 3 3 4 6 6 7 9 8 6 5 5 5 4 2 4 6 5 4 4 6 6 5 4 2 0 1 2 3 4 4 3 2
2 3 3 3 2 2 2 2 3 3 3 4 4 4 5 5 7 10 12 7 4 5 5 6 6 7 8 8 6 3 5 9 8 5 5 4 3 2 1 3 3 3 3
1 2 3 2 2 2 3 4 4 4 4 4 4 5 4 5 8 10 13 5 3 5 6 6 5 6 9 9 4 4 5 6 7 6 5 5 4 4 3 1 3 3 3
1 2 3 2 2 2 2 3 3 3 4 4 4 5 5 5 9 10 11 5 1 3 5 6 6 6 11 13 7 5 4 2 4 6 5 3 4 5 4 2 2 2 2
2 3 3 2 2 2 2 2 2 2 3 3 5 5 6 6 9 12 13 5 3 2 3 5 9 9 11 13 7 6 6 6 6 1 1 1 1 2 4 4 2 1 1
3 3 3 3 2 2 2 2 1 2 3 3 4 5 5 6 7 11 12 6 7 5 3 4 5 10 11 12 8 4 5 6 6 5 1 2 1 2 3 4 3 2 2
3 3 3 2 2 4 3 2 2 2 3 3 4 4 4 4 6 8 10 9 8 5 5 4 4 9 11 11 7 9 12 9 4 5 3 3 3 3 3 3 3 2 2
3 3 3 3 3 3 3 2 2 2 2 3 3 4 3 3 4 7 7 8 9 5 4 5 6 8 9 7 6 11 9 5 4 5 4 2 1 1 1 1 1 1 2
3 3 2 3 3 3 2 2 2 2 3 3 3 3 3 3 4 5 5 5 6 6 6 6 6 6 5 6 7 6 4 4 4 3 3 3 2 1 1 1 2 2 2
3 3 3 4 4 3 3 4 4 4 3 3 3 3 3 3 1 1 3 4 5 6 7 5 3 3 4 4 5 5 5 6 6 5 4 4 3 3 2 1 1 1 1
3 3 3 4 4 4 5 4 4 4 3 3 3 3 3 3 4 2 3 5 6 7 5 4 3 2 3 3 4 4 4 5 6 6 6 6 5 4 3 3 2 2 1
3 3 3 5 5 5 6 6 5 4 2 3 4 4 3 5 5 6 6 7 9 6 4 5 2 1 2 2 2 3 3 4 4 5 6 6 6 5 4 3 3 2 1
3 4 3 4 5 5 5 6 6 8 7 7 8 10 8 8 9 9 6 5 7 5 5 5 2 1 1 1 2 3 3 3 3 4 5 6 6 7 6 5 4 4 3
5 3 4 3 3 4 3 4 4 4 4 5 8 8 10 10 11 10 5 5 7 5 2 1 1 1 1 2 3 3 3 3 4 3 4 4 5 6 6 6 4 5 4
4 1 2 4 5 5 5 4 2 2 2 1 2 6 7 6 5 5 6 6 5 3 3 3 3 3 3 2 2 3 3 3 3 3 4 4 4 5 6 7 6 5 4
7 7 8 6 7 6 4 3 2 2 3 2 1 6 4 2 4 4 1 1 2 3 4 4 4 3 3 3 3 4 5 5 5 5 5 5 6 6 5 6 7 6 6
6 7 8 8 7 6 4 4 4 4 4 3 2 6 4 3 4 3 3 3 3 3 3 3 4 3 4 4 4 4 5 5 6 6 6 6 5 6 7 7 7 7 7
8 8 8 8 8 5 4 5 6 5 5 4 3 2 5 4 3 2 2 2 2 2 2 2 3 3 3 3 3 3 4 5 5 6 6 6 6 6 6 6 6 6 6
10 10 10 8 8 8 8 8 7 7 5 4 4 3 3 2 3 2 1 0 0 0 0 1 2 3 3 1 1 2 4 4 5 5 7 6 7 6 6 6 6 7 6
11 10 10 9 9 8 8 8 7 7 6 5 4 4 4 3 3 2 1 1 2 2 2 2 2 3 3 3 2 4 6 5 4 3 4 5 7 6 6 6 6 6 7
12 12 10 9 9 9 8 7 7 6 6 5 4 4 4 4 3 3 2 2 2 2 2 3 4 4 4 4 4 9 9 6 4 1 3 5 6 6 6 5 8 7 7
Wind_Direction
84 77 83 88 93 88 74 62 52 31 358 7 350 335 321 314 331 327 305 297 300 305 311 315 316 312 308 302 294 281 265 247 249 254 224 159 142 141 154 161 150 164 175
81 87 88 79 72 85 85 68 48 31 1 3 351 348 341 358 352 337 328 337 333 334 341 344 340 336 336 321 305 288 275 257 244 251 227 173 163 156 158 181 172 187 186
74 92 102 99 88 77 78 67 37 24 18 8 5 3 1 3 5 357 346 342 347 353 357 356 354 353 347 336 320 311 295 280 252 242 234 190 172 172 168 194 212 209 209
30 86 92 90 104 105 88 62 38 21 20 14 7 7 11 32 21 5 348 344 3 7 11 13 21 13 357 339 335 339 323 307 285 254 235 193 174 176 175 186 207 218 229
13 52 76 85 96 96 85 63 38 3 21 21 6 21 24 53 27 5 343 357 15 13 15 24 44 19 359 348 355 346 342 336 328 298 254 203 180 173 189 182 186 192 239
36 53 61 59 71 65 47 46 32 24 25 11 12 43 44 40 12 6 1 347 8 16 10 360 45 35 359 339 329 354 8 5 351 346 333 324 176 183 181 172 167 170 207
54 57 56 48 55 47 18 38 39 31 31 19 15 45 77 52 8 1 358 339 9 23 19 10 21 28 14 349 337 348 21 21 19 18 34 25 30 16 154 162 173 179 175
111 91 80 59 53 45 45 45 36 28 28 24 22 33 69 56 14 2 347 330 35 48 39 19 27 26 8 348 350 47 53 32 26 39 41 33 30 14 25 100 149 140 113
112 81 73 60 56 62 69 60 43 39 34 25 32 38 56 50 20 9 356 320 60 83 76 47 30 25 4 1 11 27 41 52 64 72 66 59 48 39 26 62 106 139 148
107 94 77 60 53 61 81 73 58 48 43 33 44 42 48 44 25 17 2 345 5 43 114 97 54 28 11 11 12 18 12 353 343 317 165 224 194 75 47 36 44 85 137
98 91 93 90 97 90 80 81 89 79 65 57 58 54 53 42 29 23 17 12 354 357 29 60 41 13 5 359 1 13 340 313 304 298 224 164 134 89 71 53 42 47 78
104 98 96 85 69 92 97 88 83 95 91 75 71 64 51 40 29 14 12 14 3 6 19 27 17 359 350 339 339 339 340 340 341 2 28 53 64 62 73 78 62 57 76
119 111 109 103 86 83 94 98 90 90 92 86 81 76 59 40 24 8 5 5 3 4 7 3 357 355 345 337 342 338 336 346 3 9 5 15 82 119 142 131 125 96 77
139 130 130 121 115 100 88 91 89 79 86 92 90 89 81 60 34 12 359 359 358 360 351 338 336 352 357 349 347 351 355 360 355 338 323 328 341 328 288 160 187 193 154
154 154 146 129 120 118 99 70 77 81 79 98 102 107 111 100 83 22 358 350 348 356 336 323 338 353 359 360 1 359 5 7 1 348 346 341 343 351 340 358 8 336 141
165 164 158 152 152 148 142 132 60 89 120 105 116 128 127 142 175 236 289 296 306 329 333 308 320 338 340 345 350 353 2 7 0 355 350 350 349 348 332 322 311 309 319
171 176 177 167 166 178 175 168 165 165 202 229 223 220 211 188 211 239 261 285 290 295 280 273 272 301 328 335 330 331 343 353 351 351 349 350 347 339 333 333 324 317 307
206 170 209 196 193 194 189 197 187 179 187 204 217 224 227 233 243 252 266 294 281 244 238 255 242 225 278 319 337 341 341 341 344 342 339 342 345 342 342 344 345 339 321
240 211 210 229 227 215 211 225 210 188 201 186 173 187 218 235 249 254 254 258 278 299 309 352 47 50 14 14 7 351 338 337 338 339 338 340 347 345 340 338 345 359 347
221 205 244 256 252 226 219 240 237 205 236 239 160 157 177 217 250 234 206 233 265 319 6 20 39 37 33 21 4 348 335 341 349 356 359 359 0 357 344 343 352 2 3
217 193 202 238 257 254 237 244 262 279 283 287 78 110 144 247 293 305 295 245 1 16 18 13 16 24 21 13 16 4 354 5 16 15 14 10 4 360 353 351 353 358 2
237 202 196 222 238 241 236 238 249 255 262 269 158 149 178 238 283 325 7 28 37 37 30 13 351 1 32 35 20 0 0 23 30 21 8 2 360 356 353 353 354 354 359
241 243 220 218 228 217 214 241 254 259 260 263 269 190 180 234 279 316 338 24 52 36 29 9 338 343 37 40 16 8 19 35 20 20 8 358 350 343 341 343 344 346 354
228 234 238 234 228 227 225 227 233 242 248 254 254 260 260 253 264 267 270 292 346 27 43 325 307 315 327 333 346 54 60 45 19 20 9 338 329 334 341 342 342 345 347
234 234 232 235 238 237 236 234 234 237 240 243 248 252 257 257 257 258 235 211 225 236 245 247 250 263 265 261 223 128 120 105 76 18 339 326 326 329 333 337 340 339 337
226 235 237 233 232 234 237 238 235 233 234 235 238 241 252 256 254 251 239 220 222 227 233 247 250 251 246 238 194 150 152 153 143 111 326 315 313 318 333 330 323 323 325